26.02.2024 02:00:00 175,69
26.02.2024 03:00:00 175,69
26.02.2024 04:00:00 175,69
26.02.2024 05:00:00 175,69
26.02.2024 10:00:00 175,69
26.02.2024 11:00:00 175,69
26.02.2024 12:00:00 175,69
26.02.2024 13:00:00 175,69
26.02.2024 15:00:00 175,69
26.02.2024 16:00:00 175,69
26.02.2024 17:00:00 175,69
26.02.2024 18:00:00 175,69
26.02.2024 20:00:00 175,69
26.02.2024 21:00:00 175,69
26.02.2024 22:00:00 175,69
26.02.2024 23:00:00 175,69
27.02.2024 00:00:00 175,69
27.02.2024 01:00:00 175,69
27.02.2024 02:00:00 175,68
27.02.2024 03:00:00 175,69
27.02.2024 04:00:00 175,68
27.02.2024 05:00:00 175,68
27.02.2024 06:00:00 175,68
27.02.2024 09:00:00 175,68
27.02.2024 10:00:00 175,68
27.02.2024 12:00:00 175,68
27.02.2024 13:00:00 175,68
27.02.2024 17:00:00 175,68
27.02.2024 18:00:00 175,68
27.02.2024 19:00:00 175,68
27.02.2024 20:00:00 175,68
27.02.2024 21:00:00 175,68
27.02.2024 22:00:00 175,68
27.02.2024 23:00:00 175,68
28.02.2024 01:00:00 175,68
28.02.2024 02:00:00 175,68
28.02.2024 03:00:00 175,68
28.02.2024 04:00:00 175,68
28.02.2024 05:00:00 175,68
28.02.2024 06:00:00 175,68
28.02.2024 07:00:00 175,68
28.02.2024 08:00:00 175,68
28.02.2024 09:00:00 175,68
28.02.2024 10:00:00 175,68
28.02.2024 11:00:00 175,68
28.02.2024 12:00:00 175,68
28.02.2024 13:00:00 175,68
28.02.2024 14:00:00 175,68
28.02.2024 15:00:00 175,67
28.02.2024 18:00:00 175,67
28.02.2024 19:00:00 175,67
28.02.2024 20:00:00 175,67
28.02.2024 21:00:00 175,67
28.02.2024 22:00:00 175,67
29.02.2024 01:00:00 175,67
29.02.2024 02:00:00 175,67
29.02.2024 03:00:00 175,67
29.02.2024 09:00:00 175,67
29.02.2024 10:00:00 175,67
29.02.2024 11:00:00 175,67
29.02.2024 12:00:00 175,68
29.02.2024 13:00:00 175,67
29.02.2024 14:00:00 175,68
29.02.2024 15:00:00 175,68
29.02.2024 16:00:00 175,68
29.02.2024 17:00:00 175,68
29.02.2024 18:00:00 175,68
29.02.2024 19:00:00 175,67
29.02.2024 20:00:00 175,67
29.02.2024 21:00:00 175,68
29.02.2024 22:00:00 175,68
29.02.2024 23:00:00 175,67
01.03.2024 00:00:00 175,68
01.03.2024 01:00:00 175,68
01.03.2024 02:00:00 175,68
01.03.2024 03:00:00 175,68
01.03.2024 05:00:00 175,68
01.03.2024 06:00:00 175,67
01.03.2024 07:00:00 175,67
01.03.2024 08:00:00 175,67
01.03.2024 14:00:00 175,67
01.03.2024 15:00:00 175,67
01.03.2024 17:00:00 175,67
01.03.2024 18:00:00 175,67
01.03.2024 22:00:00 175,67
01.03.2024 23:00:00 175,67
02.03.2024 00:00:00 175,67
02.03.2024 01:00:00 175,67
02.03.2024 03:00:00 175,67
02.03.2024 04:00:00 175,67
02.03.2024 05:00:00 175,67
02.03.2024 06:00:00 175,67
02.03.2024 07:00:00 175,67
02.03.2024 08:00:00 175,67
02.03.2024 09:00:00 175,67
02.03.2024 10:00:00 175,67
02.03.2024 11:00:00 175,67
02.03.2024 16:00:00 175,67
02.03.2024 17:00:00 175,67
02.03.2024 22:00:00 175,67
02.03.2024 23:00:00 175,67
03.03.2024 00:00:00 175,67
03.03.2024 04:00:00 175,67
03.03.2024 05:00:00 175,67
03.03.2024 06:00:00 175,67
03.03.2024 07:00:00 175,67
03.03.2024 08:00:00 175,67
03.03.2024 09:00:00 175,67
03.03.2024 11:00:00 175,67
03.03.2024 12:00:00 175,67
03.03.2024 13:00:00 175,67
03.03.2024 14:00:00 175,67
03.03.2024 15:00:00 175,67
03.03.2024 16:00:00 175,67
03.03.2024 19:00:00 175,67
03.03.2024 20:00:00 175,66
03.03.2024 23:00:00 175,66
04.03.2024 00:00:00 175,66
04.03.2024 01:00:00 175,66
04.03.2024 02:00:00 175,66
04.03.2024 03:00:00 175,66
04.03.2024 04:00:00 175,66
04.03.2024 08:00:00 175,66
04.03.2024 09:00:00 175,66
04.03.2024 15:00:00 175,66
04.03.2024 16:00:00 175,66
04.03.2024 17:00:00 175,66
04.03.2024 18:00:00 175,66
04.03.2024 19:00:00 175,66
04.03.2024 20:00:00 175,66
04.03.2024 21:00:00 175,66
04.03.2024 23:00:00 175,66
05.03.2024 00:00:00 175,66
05.03.2024 01:00:00 175,66
05.03.2024 02:00:00 175,66
05.03.2024 03:00:00 175,66
05.03.2024 04:00:00 175,66
05.03.2024 05:00:00 175,66
05.03.2024 06:00:00 175,66
05.03.2024 07:00:00 175,66
05.03.2024 13:00:00 175,66
05.03.2024 14:00:00 175,65
05.03.2024 16:00:00 175,65
05.03.2024 17:00:00 175,65
05.03.2024 18:00:00 175,65
05.03.2024 19:00:00 175,65
05.03.2024 20:00:00 175,65
05.03.2024 21:00:00 175,65
05.03.2024 22:00:00 175,65
05.03.2024 23:00:00 175,65
06.03.2024 00:00:00 175,65
06.03.2024 01:00:00 175,65
06.03.2024 02:00:00 175,65
06.03.2024 04:00:00 175,65
06.03.2024 05:00:00 175,65
06.03.2024 07:00:00 175,65
06.03.2024 08:00:00 175,65
06.03.2024 09:00:00 175,65
06.03.2024 10:00:00 175,65
06.03.2024 11:00:00 175,65
06.03.2024 12:00:00 175,65
06.03.2024 13:00:00 175,65
06.03.2024 14:00:00 175,65
06.03.2024 15:00:00 175,65
06.03.2024 16:00:00 175,65
06.03.2024 17:00:00 175,65
06.03.2024 18:00:00 175,65
06.03.2024 19:00:00 175,65
06.03.2024 20:00:00 175,65
06.03.2024 21:00:00 175,65
06.03.2024 22:00:00 175,65
06.03.2024 23:00:00 175,65
07.03.2024 05:00:00 175,65
07.03.2024 06:00:00 175,65
07.03.2024 07:00:00 175,65
07.03.2024 08:00:00 175,65
07.03.2024 09:00:00 175,65
07.03.2024 10:00:00 175,65
07.03.2024 11:00:00 175,65
07.03.2024 12:00:00 175,65
07.03.2024 16:00:00 175,65
07.03.2024 17:00:00 175,64
07.03.2024 20:00:00 175,64
07.03.2024 21:00:00 175,64
08.03.2024 06:00:00 175,64
08.03.2024 07:00:00 175,64
08.03.2024 17:00:00 175,64
08.03.2024 18:00:00 175,64
08.03.2024 19:00:00 175,64
08.03.2024 20:00:00 175,64
08.03.2024 21:00:00 175,64
08.03.2024 22:00:00 175,64
09.03.2024 05:00:00 175,64
09.03.2024 06:00:00 175,64
09.03.2024 08:00:00 175,64
09.03.2024 09:00:00 175,64
09.03.2024 10:00:00 175,64
09.03.2024 16:00:00 175,64
09.03.2024 17:00:00 175,64
09.03.2024 18:00:00 175,64
09.03.2024 19:00:00 175,64
10.03.2024 07:00:00 175,64
10.03.2024 08:00:00 175,64
10.03.2024 09:00:00 175,64
10.03.2024 10:00:00 175,64
10.03.2024 14:00:00 175,64
10.03.2024 15:00:00 175,64
10.03.2024 16:00:00 175,64
10.03.2024 17:00:00 175,64
10.03.2024 19:00:00 175,64
10.03.2024 20:00:00 175,64
10.03.2024 22:00:00 175,64
10.03.2024 23:00:00 175,64
11.03.2024 00:00:00 175,64
11.03.2024 01:00:00 175,64
11.03.2024 02:00:00 175,64
11.03.2024 03:00:00 175,64
11.03.2024 04:00:00 175,64
11.03.2024 05:00:00 175,64
11.03.2024 06:00:00 175,63
11.03.2024 07:00:00 175,63
11.03.2024 08:00:00 175,63
11.03.2024 09:00:00 175,63
11.03.2024 10:00:00 175,63
11.03.2024 11:00:00 175,64
11.03.2024 12:00:00 175,63
11.03.2024 13:00:00 175,64
11.03.2024 14:00:00 175,63
11.03.2024 16:00:00 175,63
11.03.2024 17:00:00 175,63
11.03.2024 23:00:00 175,63
12.03.2024 00:00:00 175,63
12.03.2024 01:00:00 175,63
12.03.2024 02:00:00 175,63
12.03.2024 03:00:00 175,63
12.03.2024 04:00:00 175,63
12.03.2024 05:00:00 175,63
12.03.2024 07:00:00 175,63
12.03.2024 08:00:00 175,63
12.03.2024 11:00:00 175,63
12.03.2024 12:00:00 175,63
12.03.2024 13:00:00 175,63
12.03.2024 14:00:00 175,63
12.03.2024 16:00:00 175,63
12.03.2024 17:00:00 175,63
12.03.2024 19:00:00 175,63
12.03.2024 20:00:00 175,63
12.03.2024 21:00:00 175,63
12.03.2024 22:00:00 175,63
12.03.2024 23:00:00 175,63
13.03.2024 00:00:00 175,63
13.03.2024 01:00:00 175,63
13.03.2024 02:00:00 175,64
13.03.2024 06:00:00 175,64
13.03.2024 07:00:00 175,64
13.03.2024 08:00:00 175,64
13.03.2024 10:00:00 175,64
13.03.2024 11:00:00 175,64
13.03.2024 12:00:00 175,64
13.03.2024 20:00:00 175,64
13.03.2024 21:00:00 175,64
13.03.2024 22:00:00 175,64
14.03.2024 00:00:00 175,64
14.03.2024 01:00:00 175,64
14.03.2024 02:00:00 175,64
14.03.2024 03:00:00 175,64
14.03.2024 04:00:00 175,64
14.03.2024 05:00:00 175,64
14.03.2024 06:00:00 175,64
14.03.2024 09:00:00 175,64
14.03.2024 10:00:00 175,64
14.03.2024 12:00:00 175,64
14.03.2024 13:00:00 175,64
14.03.2024 14:00:00 175,64
14.03.2024 15:00:00 175,64
14.03.2024 17:00:00 175,64
14.03.2024 18:00:00 175,64
14.03.2024 23:00:00 175,64
15.03.2024 00:00:00 175,64
15.03.2024 01:00:00 175,64
15.03.2024 02:00:00 175,64
15.03.2024 04:00:00 175,64
15.03.2024 05:00:00 175,64
15.03.2024 06:00:00 175,64
15.03.2024 07:00:00 175,64
15.03.2024 08:00:00 175,64
15.03.2024 09:00:00 175,64
15.03.2024 10:00:00 175,64
15.03.2024 11:00:00 175,64
15.03.2024 12:00:00 175,64
15.03.2024 13:00:00 175,64
15.03.2024 15:00:00 175,64
15.03.2024 16:00:00 175,64
15.03.2024 20:00:00 175,64
15.03.2024 21:00:00 175,64
15.03.2024 22:00:00 175,64
15.03.2024 23:00:00 175,64
16.03.2024 00:00:00 175,64
16.03.2024 01:00:00 175,64
16.03.2024 04:00:00 175,64
16.03.2024 05:00:00 175,63
16.03.2024 06:00:00 175,63
16.03.2024 07:00:00 175,63
16.03.2024 11:00:00 175,63
16.03.2024 12:00:00 175,63
16.03.2024 15:00:00 175,63
16.03.2024 16:00:00 175,63
16.03.2024 18:00:00 175,63
16.03.2024 19:00:00 175,63
16.03.2024 20:00:00 175,63
16.03.2024 21:00:00 175,63
16.03.2024 22:00:00 175,63
16.03.2024 23:00:00 175,63
17.03.2024 02:00:00 175,63
17.03.2024 03:00:00 175,63
17.03.2024 04:00:00 175,63
17.03.2024 05:00:00 175,63
17.03.2024 06:00:00 175,63
17.03.2024 07:00:00 175,63
17.03.2024 08:00:00 175,63
17.03.2024 09:00:00 175,63
17.03.2024 10:00:00 175,63
17.03.2024 11:00:00 175,63
17.03.2024 12:00:00 175,63
17.03.2024 14:00:00 175,63
17.03.2024 15:00:00 175,63
17.03.2024 16:00:00 175,63
17.03.2024 18:00:00 175,63
18.03.2024 00:00:00 175,63
18.03.2024 01:00:00 175,63
18.03.2024 04:00:00 175,63
18.03.2024 05:00:00 175,63
18.03.2024 06:00:00 175,63
18.03.2024 08:00:00 175,63
18.03.2024 09:00:00 175,63
18.03.2024 10:00:00 175,63
18.03.2024 11:00:00 175,63
18.03.2024 16:00:00 175,63
18.03.2024 17:00:00 175,63
18.03.2024 18:00:00 175,63
18.03.2024 19:00:00 175,63
18.03.2024 20:00:00 175,63
18.03.2024 21:00:00 175,63
18.03.2024 22:00:00 175,63
18.03.2024 23:00:00 175,63
19.03.2024 00:00:00 175,63
19.03.2024 01:00:00 175,63
19.03.2024 02:00:00 175,63
19.03.2024 03:00:00 175,63
19.03.2024 04:00:00 175,63
19.03.2024 06:00:00 175,63
19.03.2024 07:00:00 175,62
19.03.2024 11:00:00 175,62
19.03.2024 12:00:00 175,63
19.03.2024 13:00:00 175,63
19.03.2024 14:00:00 175,63
19.03.2024 15:00:00 175,62
19.03.2024 16:00:00 175,62
19.03.2024 17:00:00 175,62
19.03.2024 23:00:00 175,62
20.03.2024 00:00:00 175,62
20.03.2024 02:00:00 175,62
20.03.2024 03:00:00 175,62
20.03.2024 04:00:00 175,62
20.03.2024 05:00:00 175,62
20.03.2024 06:00:00 175,62
20.03.2024 08:00:00 175,62
20.03.2024 09:00:00 175,62
20.03.2024 10:00:00 175,62
20.03.2024 11:00:00 175,62
20.03.2024 12:00:00 175,62
20.03.2024 17:00:00 175,62
20.03.2024 18:00:00 175,62
20.03.2024 19:00:00 175,62
20.03.2024 20:00:00 175,62
20.03.2024 21:00:00 175,62
20.03.2024 22:00:00 175,62
21.03.2024 00:00:00 175,62
21.03.2024 01:00:00 175,62
21.03.2024 02:00:00 175,62
21.03.2024 03:00:00 175,62
21.03.2024 04:00:00 175,62
21.03.2024 07:00:00 175,62
21.03.2024 08:00:00 175,62
21.03.2024 09:00:00 175,62
21.03.2024 10:00:00 175,62
21.03.2024 11:00:00 175,62
21.03.2024 13:00:00 175,62
21.03.2024 14:00:00 175,62
21.03.2024 15:00:00 175,62
21.03.2024 16:00:00 175,62
21.03.2024 18:00:00 175,62
21.03.2024 19:00:00 175,62
21.03.2024 21:00:00 175,62
21.03.2024 22:00:00 175,62
21.03.2024 23:00:00 175,62
22.03.2024 03:00:00 175,62
22.03.2024 04:00:00 175,62
22.03.2024 10:00:00 175,62
22.03.2024 11:00:00 175,62
22.03.2024 13:00:00 175,62
22.03.2024 14:00:00 175,62
22.03.2024 15:00:00 175,62
22.03.2024 17:00:00 175,62
22.03.2024 18:00:00 175,62
22.03.2024 19:00:00 175,62
22.03.2024 22:00:00 175,62
22.03.2024 23:00:00 175,63
23.03.2024 00:00:00 175,63
23.03.2024 01:00:00 175,63
23.03.2024 02:00:00 175,63
23.03.2024 03:00:00 175,63
23.03.2024 04:00:00 175,63
23.03.2024 05:00:00 175,63
23.03.2024 07:00:00 175,63
23.03.2024 08:00:00 175,63
23.03.2024 09:00:00 175,63
23.03.2024 10:00:00 175,63
23.03.2024 11:00:00 175,63
23.03.2024 13:00:00 175,63
23.03.2024 14:00:00 175,62
23.03.2024 15:00:00 175,62
23.03.2024 16:00:00 175,62
23.03.2024 17:00:00 175,62
23.03.2024 18:00:00 175,62
23.03.2024 19:00:00 175,62
23.03.2024 20:00:00 175,62
23.03.2024 21:00:00 175,62
23.03.2024 22:00:00 175,63
23.03.2024 23:00:00 175,63
24.03.2024 00:00:00 175,62
24.03.2024 01:00:00 175,62
24.03.2024 02:00:00 175,62
24.03.2024 03:00:00 175,62
24.03.2024 04:00:00 175,62
24.03.2024 05:00:00 175,62
24.03.2024 06:00:00 175,62
24.03.2024 07:00:00 175,62
24.03.2024 08:00:00 175,62
24.03.2024 09:00:00 175,62
24.03.2024 10:00:00 175,63
24.03.2024 11:00:00 175,63
24.03.2024 12:00:00 175,63
24.03.2024 13:00:00 175,63
24.03.2024 14:00:00 175,63
24.03.2024 15:00:00 175,63
24.03.2024 17:00:00 175,63
24.03.2024 18:00:00 175,62
24.03.2024 20:00:00 175,62
24.03.2024 21:00:00 175,62
25.03.2024 04:00:00 175,62
25.03.2024 05:00:00 175,62
25.03.2024 06:00:00 175,62
25.03.2024 07:00:00 175,62
25.03.2024 10:00:00 175,62
25.03.2024 11:00:00 175,62
25.03.2024 16:00:00 175,62
25.03.2024 17:00:00 175,62
25.03.2024 18:00:00 175,62
25.03.2024 19:00:00 175,62
25.03.2024 21:00:00 175,62
25.03.2024 22:00:00 175,62
25.03.2024 23:00:00 175,62
26.03.2024 00:00:00 175,62
26.03.2024 01:00:00 175,62
26.03.2024 02:00:00 175,63
26.03.2024 03:00:00 175,63
26.03.2024 04:00:00 175,62
26.03.2024 05:00:00 175,63
26.03.2024 08:00:00 175,63
26.03.2024 09:00:00 175,63
26.03.2024 10:00:00 175,63
26.03.2024 11:00:00 175,63
26.03.2024 13:00:00 175,63
26.03.2024 14:00:00 175,63
26.03.2024 15:00:00 175,63
26.03.2024 17:00:00 175,63
26.03.2024 18:00:00 175,63
26.03.2024 19:00:00 175,63
27.03.2024 01:00:00 175,63
27.03.2024 02:00:00 175,63
27.03.2024 03:00:00 175,63
27.03.2024 04:00:00 175,63
27.03.2024 05:00:00 175,63
27.03.2024 06:00:00 175,63
28.03.2024 06:00:00 175,63
